Regional Weather Roundup
Issued by NWS Kansas City/Pleasant Hill, MO

Home | Current Version | Previous Version | Graphics & Text | Print | Product List | Glossary Off
Versions: 1 2 3 4 5 6 7 8 9 10 11 12 13 14 15 16 17 18 19 20 21 22 23 24 25 26 27 28 29 30 31 32 33 34 35 36 37 38 39 40 41 42 43 44 45 46 47 48 49 50

000
ASUS43 KEAX 271510
RWREAX

WEATHER ROUNDUP FOR EASTERN KANSAS AND NORTHWEST MISSOURI
NATIONAL WEATHER SERVICE KANSAS CITY/PLEASANT HILL MO
900 AM CST FRI FEB 27 2015

KSZ040-057-103>105-MOZ028-029-037-043-271600-
...KANSAS CITY METROPOLITAN AREA...

CITY           SKY/WX    TMP DP  RH WIND       PRES   REMARKS
K.C. INTL      PTSUNNY    7  -1  70 CALM      30.64R
K.C. DOWNTOWN  SUNNY     10  -2  58 CALM      30.68R
LEES SUMMIT    SUNNY      7  -3  64 N5        30.65R WCI  -2
OLATHE - IXD   FLURRIES   8  -1  66 VRB3      30.65R
OLATHE - OJC   FAIR       8  -2  63 CALM      30.63R
LAWRENCE       SUNNY      8  -1  66 VRB3      30.68R

$$

MOZ001>008-011>017-020>025-030>033-038>040-044>046-053-054-271600-
...NORTHERN AND CENTRAL MISSOURI...

CITY           SKY/WX    TMP DP  RH WIND       PRES   REMARKS
ST. JOSEPH     SUNNY      6   0  76 N3        30.67R
MOSBY          SUNNY      7   0  72 CALM      30.67R
WARRENSBURG    SUNNY      9   0  66 NE3       30.67S
WHITEMAN AFB   SUNNY      8  -3  63 NE6       30.64R WCI  -3
CLINTON        SUNNY     12   1  62 NE5       30.67R WCI   4
SEDALIA        SUNNY      8  -1  66 CALM      30.66R
WARSAW         NOT AVBL
MARSHALL       MOSUNNY    9   1  72 E5        30.67R WCI   0
CHILLICOTHE      N/A      6  -2  69 CALM      30.68R
MOBERLY        SUNNY      7  -4  61 N6        30.66R WCI  -3
KIRKSVILLE     SUNNY      4  -3  73 N3        30.65R

$$

MOZ041-047>049-056>058-063>065-088>090-097-271600-
...EASTERN AND SOUTHERN MISSOURI...

CITY           SKY/WX    TMP DP  RH WIND       PRES   REMARKS
ST. LOUIS INTL MOSUNNY    8  -3  61 N8        30.69R WCI  -4
SPIRIT OF STL  SUNNY      8  -3  61 CALM      30.69R
COLUMBIA       SUNNY      8  -3  61 N6        30.65S WCI  -2
JEFFERSON CITY SUNNY      8  -4  58 VRB3      30.69F
MEXICO         SUNNY      7   0  72 N6        30.66R WCI  -3
HANNIBAL       SUNNY      5  -8  56 NW5       30.66F WCI  -4
ROLLA          SUNNY      7  -4  60 N6        30.59S WCI  -3
OSAGE BEACH    SUNNY      9   0  66 E6        30.63R WCI  -1
SPRINGFIELD    SUNNY     11   1  64 NE9       30.55R WCI  -2
BRANSON        MOSUNNY   14   3  62 E9        30.55R WCI   2
NEVADA         SUNNY     10   0  61 NE8       30.65S WCI  -1
JOPLIN         CLOUDY    11   1  64 NE8       30.61R WCI  -1
WEST PLAINS    SUNNY     11   0  61 NE8       30.57S WCI  -1

$$

IAZ060-094-KSZ022-034>040-054-083-096-NEZ052-066-093-271600-
...KANSAS...SOUTHEAST NEBRASKA AND IOWA...

CITY           SKY/WX    TMP DP  RH WIND       PRES   REMARKS
TOPEKA         MOSUNNY    9   0  67 SE3       30.67R
MANHATTAN      CLOUDY     9   3  77 VRB6      30.63S WCI  -1
EMPORIA        CLOUDY     8   1  73 NE8       30.61R WCI  -4
CHANUTE        PTSUNNY   12   1  61 NE10      30.62S WCI  -1
WICHITA        CLOUDY    13  -2  51 NE8       30.59R WCI   2
OMAHA          SUNNY      3  -3  76 CALM      30.64R
LINCOLN        SUNNY      4  -3  73 CALM      30.63R
FALLS CITY     SUNNY      6   0  76 CALM      30.65R
LAMONI         SUNNY      2  -6  69 N7        30.62R WCI -11
DES MOINES     MOSUNNY    0  -8  69 NW5       30.64R WCI -10

$$




USA.gov is the U.S. government's official web portal to all federal, state and local government web resources and services.